[[{"header":{"parameterUnit":"m.s-1","parameterCategory":1,"la1":30.2991,"la2":30.254,"lo1":-89.0895,"lo2":-89.0444,"dy":0.0017,"dx":0.0017,"nx":28,"ny":28,"refTime":"2026-02-11T03:00:00:Z","depth":0,"parameterNumber":2,"parameterNumberName":"U-component_of_WINDS"},"data":[0,0,0,0,0,0,0,0,0,0,0,0,0,0,0,0,0,0,0,0,0,0,0,0,0,0,0,0,0,0,0,0,0,0,0,0,0,0,0,0,0,0,0,0,0,0,0,0,0,0,0,0,0,0,0,0,0,0,1.4504,1.4505,0,1.4639,1.464,1.4642,1.4651,1.465,1.4648,1.4647,1.4789,1.4794,1.4799,0,0,0,0,0,0,0,0,0,0,0,0,0,1.4259,1.4263,1.4504,1.4506,1.4507,1.4638,1.464,1.4642,1.4652,1.465,1.4648,1.4646,1.4788,1.4794,1.48,0,0,0,0,0,0,0,0,0,0,0,0,0,1.4377,1.4265,1.4504,1.4528,1.4531,1.4638,1.464,1.4643,1.4652,1.465,1.4647,1.4645,1.4786,1.4793,1.4801,1.4894,0,0,1.4825,1.4828,0,0,0,0,0,0,0,0,1.437,1.4386,1.4522,1.4526,1.453,1.4626,1.4606,1.4727,1.4653,1.4606,1.4647,1.4644,1.4737,1.4749,1.4779,1.4901,1.4907,1.4825,1.483,1.4833,1.4836,0,0,0,0,0,0,0,1.4362,1.438,1.4557,1.4524,1.4529,1.4533,1.4547,1.4629,1.4683,1.461,1.4611,1.4627,1.4739,1.4771,1.4782,1.4909,1.4825,1.4832,1.4837,1.484,1.5114,1.5116,0,0,0,0,0,0,1.4348,1.4373,1.4553,1.4561,1.4443,1.4539,1.4555,1.4597,1.4682,1.4693,1.4628,1.4627,1.4759,1.4773,1.4787,1.4902,1.4833,1.4841,1.4845,1.5111,1.5114,1.5117,0,0,0,0,0,0,1.4343,1.4364,1.4548,1.4468,1.4491,1.4546,1.4593,1.4601,1.4634,1.4696,1.4706,1.4652,1.4758,1.4777,1.4867,1.4907,1.4844,1.4851,1.5108,1.5112,1.5116,1.5131,0,0,0,0,0,0,1.4336,1.4362,1.4397,1.4468,1.4495,1.4624,1.4596,1.4606,1.4647,1.4646,1.472,1.473,1.4758,1.4855,1.4875,1.4916,1.4857,1.5105,1.511,1.5114,1.5127,1.5135,1.5141,0,0,0,0,0,1.4327,1.4397,1.4399,1.4421,1.454,1.4626,1.4642,1.467,1.465,1.4686,1.4726,1.4728,1.4899,1.4865,1.4887,1.4931,1.5102,1.5108,1.5114,1.5124,1.5133,1.5141,0,0,0,0,0,0,1.4332,1.4407,1.441,1.4505,1.4559,1.4627,1.4674,1.4679,1.4741,1.4738,1.4772,1.4789,1.4878,1.4914,1.4874,1.5026,1.4999,1.5009,1.4999,1.5008,1.5015,1.5004,1.4864,0,0,0,0,0,1.4343,1.4405,1.4469,1.4546,1.4573,1.4619,1.4657,1.4675,1.4732,1.4756,1.4802,1.4859,1.4926,1.4969,1.5034,1.5132,1.5149,1.5174,1.5181,1.5187,1.5195,1.5249,1.5261,1.5136,1.5136,1.5136,0,0,1.4369,1.4418,1.4455,1.4548,1.4592,1.4657,1.4638,1.4707,1.4756,1.4767,1.4854,1.4891,1.4957,1.5051,1.5095,1.5084,1.5233,1.5194,1.5198,1.5204,1.5257,1.5268,1.5279,1.514,1.514,1.5139,0,0,1.4447,1.4491,1.456,1.4604,1.467,1.47,1.4716,1.4784,1.4808,1.4896,1.4905,1.4965,1.5079,1.5125,1.5164,1.526,1.5264,1.5281,1.5318,1.537,1.538,1.5389,1.5423,1.5434,1.5289,1.5289,1.5289,0,1.4471,1.4567,1.4595,1.4664,1.4705,1.4716,1.4787,1.4829,1.4913,1.4941,1.4927,1.507,1.5116,1.5221,1.5244,1.5275,1.5296,1.5272,1.5376,1.5385,1.5394,1.5427,1.5439,1.529,1.529,1.529,1.529,0,1.4592,1.4659,1.4707,1.4786,1.4833,1.4902,1.4942,1.4986,1.4999,1.5031,1.5121,1.5176,1.5251,1.5278,1.5293,1.5386,1.5376,1.5369,1.5342,1.5407,1.5438,1.5451,1.5293,1.5292,1.5292,1.5291,0,0,1.4677,1.477,1.4788,1.4823,1.4897,1.495,1.502,1.5093,1.5129,1.5188,1.5248,1.5344,1.5337,1.5381,1.5401,1.5447,1.5519,1.5434,1.5436,1.5447,1.5624,1.5629,1.5643,1.5522,1.5525,1.5527,1.5618,0,1.4764,1.4887,1.4914,1.5021,1.5083,1.5095,1.5156,1.5208,1.524,1.5298,1.5334,1.5401,1.5388,1.5414,1.546,1.55,1.5555,1.5494,1.5579,1.5582,1.5561,1.5659,1.5664,1.5748,1.5631,1.5633,1.5635,0,1.4881,1.4939,1.5052,1.5116,1.5143,1.5198,1.5266,1.5322,1.5382,1.5402,1.545,1.5465,1.554,1.551,1.5614,1.5572,1.5608,1.5633,1.5637,1.5646,1.5611,1.567,1.5776,1.5788,1.5654,1.5653,1.5651,0,1.493,1.5038,1.5118,1.5149,1.5227,1.5265,1.5299,1.5357,1.5398,1.5459,1.5487,1.5556,1.5593,1.5647,1.5681,1.5656,1.5782,1.5755,1.5801,1.58,1.5826,1.5824,1.5938,1.5851,1.5851,1.585,1.585,0,1.5023,1.5091,1.5141,1.5191,1.5268,1.5299,1.5375,1.541,1.5461,1.5519,1.5534,1.5588,1.563,1.569,1.5717,1.5798,1.5816,1.5834,1.584,1.5832,1.583,1.5856,1.5851,1.5854,1.5853,1.5852,1.5852,0,1.5091,1.5127,1.5216,1.5282,1.53,1.5354,1.5411,1.546,1.5492,1.5565,1.5584,1.5635,1.5706,1.5745,1.5835,1.5853,1.5944,1.5948,1.5923,1.5926,1.5968,1.5964,1.6104,1.6123,1.6023,1.6024,1.6025,0,1.5147,1.5199,1.527,1.5309,1.5344,1.5406,1.5449,1.5482,1.5526,1.5598,1.5638,1.571,1.5769,1.5883,1.5929,1.5998,1.6003,1.6047,1.6014,1.6003,1.6003,1.5999,1.6004,1.6053,1.6054,1.6055,1.6055,0,1.5243,1.5258,1.5317,1.5383,1.5433,1.5487,1.554,1.5571,1.5614,1.5662,1.5734,1.578,1.5871,1.5943,1.6015,1.6052,1.6061,1.6065,1.608,1.6071,1.6054,1.6063,1.5938,1.6062,1.6061,1.6061,1.606,1.606,1.5306,1.5353,1.541,1.5475,1.5519,1.5568,1.5617,1.5655,1.5715,1.5791,1.5808,1.5884,1.5943,1.6041,1.608,1.6141,1.6133,1.6153,1.6158,1.6162,1.6164,1.6045,1.6155,1.6154,1.6154,1.6154,1.6154,0,1.5401,1.5439,1.5499,1.5572,1.5624,1.5626,1.5686,1.5729,1.5795,1.5849,1.5907,1.599,1.6059,1.611,1.6181,1.622,1.6226,1.6237,1.6235,1.6243,1.6168,1.6148,1.6231,1.6231,1.6231,1.6231,1.6231,1.6231,1.5457,1.5536,1.5558,1.5659,1.5697,1.577,1.5803,1.585,1.5892,1.5984,1.6041,1.6073,1.6126,1.6201,1.6265,1.6278,1.6303,1.6314,1.6328,1.6257,1.6248,1.624,1.6222,1.632,1.632,1.6398,1.6399,1.6399]},{"header":{"parameterUnit":"m.s-1","parameterCategory":1,"la1":30.2991,"la2":30.254,"lo1":-89.0895,"lo2":-89.0444,"dy":0.0017,"dx":0.0017,"nx":28,"ny":28,"refTime":"2026-02-11T03:00:00:Z","depth":0,"parameterNumber":3,"parameterNumberName":"V-component_of_WINDS"},"data":[0,0,0,0,0,0,0,0,0,0,0,0,0,0,0,0,0,0,0,0,0,0,0,0,0,0,0,0,0,0,0,0,0,0,0,0,0,0,0,0,0,0,0,0,0,0,0,0,0,0,0,0,0,0,0,0,0,0,0.4953,0.4952,0,0.488,0.4879,0.4879,0.4798,0.4797,0.4796,0.4795,0.472,0.4719,0.4718,0,0,0,0,0,0,0,0,0,0,0,0,0,0.5021,0.5021,0.4953,0.4952,0.4951,0.488,0.4879,0.4878,0.4798,0.4797,0.4795,0.4794,0.472,0.4719,0.4718,0,0,0,0,0,0,0,0,0,0,0,0,0,0.4975,0.502,0.4953,0.4903,0.4898,0.4881,0.4879,0.4878,0.4799,0.4797,0.4795,0.4793,0.472,0.4719,0.4717,0.4744,0,0,0.4713,0.4713,0,0,0,0,0,0,0,0,0.4977,0.4972,0.4911,0.4906,0.49,0.4846,0.4876,0.4833,0.4799,0.4836,0.4795,0.4793,0.4763,0.4758,0.4748,0.4741,0.4737,0.4713,0.4712,0.4712,0.4711,0,0,0,0,0,0,0,0.4981,0.4975,0.4924,0.491,0.4904,0.4883,0.4875,0.4867,0.481,0.4833,0.4827,0.4819,0.476,0.475,0.4746,0.4736,0.4713,0.4712,0.4711,0.4711,0.4744,0.4746,0,0,0,0,0,0,0.4992,0.4978,0.4927,0.4922,0.4935,0.4883,0.4874,0.4865,0.481,0.48,0.4821,0.4816,0.4753,0.4748,0.4743,0.4769,0.4712,0.4711,0.471,0.4743,0.4745,0.4747,0,0,0,0,0,0,0.4993,0.4988,0.4929,0.4948,0.4939,0.4884,0.4875,0.4865,0.4855,0.4801,0.479,0.4821,0.4751,0.4745,0.4744,0.4765,0.471,0.4709,0.4741,0.4743,0.4746,0.4822,0,0,0,0,0,0,0.4996,0.4989,0.4999,0.4949,0.4939,0.4933,0.4877,0.4865,0.4853,0.4845,0.4799,0.4789,0.475,0.4746,0.4743,0.4762,0.4708,0.4738,0.4742,0.4745,0.4817,0.4827,0.4835,0,0,0,0,0,0.4998,0.5024,0.5,0.4994,0.495,0.4934,0.4928,0.4882,0.4855,0.4864,0.4829,0.4791,0.4764,0.4747,0.4742,0.4762,0.4737,0.4741,0.4745,0.4813,0.4825,0.4835,0,0,0,0,0,0,0.5078,0.5016,0.4989,0.4999,0.4972,0.492,0.4931,0.4896,0.4876,0.487,0.4813,0.4804,0.4809,0.4785,0.4768,0.4783,0.4745,0.4748,0.4799,0.4809,0.4818,0.4823,0.4706,0,0,0,0,0,0.5097,0.5089,0.5035,0.5049,0.5037,0.4987,0.4978,0.4945,0.4914,0.4902,0.4868,0.4839,0.4824,0.4815,0.4799,0.4814,0.4801,0.4824,0.4833,0.4841,0.4844,0.4848,0.4857,0.4759,0.4759,0.4759,0,0,0.5135,0.5101,0.5099,0.5064,0.504,0.5032,0.4978,0.4972,0.4966,0.4902,0.4898,0.4872,0.4836,0.4843,0.4844,0.4823,0.4868,0.4846,0.4852,0.4851,0.4853,0.4862,0.487,0.4762,0.4761,0.4761,0,0,0.5201,0.5175,0.5183,0.5159,0.5122,0.5087,0.509,0.5042,0.5022,0.5018,0.4969,0.496,0.4936,0.4912,0.4897,0.4952,0.4915,0.4948,0.4994,0.4999,0.5006,0.5013,0.5031,0.5039,0.4952,0.4952,0.4952,0,0.5253,0.524,0.5191,0.5188,0.5174,0.5115,0.5122,0.5101,0.5061,0.5052,0.5029,0.4996,0.4968,0.4967,0.4981,0.4971,0.497,0.4953,0.5009,0.5015,0.5021,0.5037,0.5045,0.4956,0.4955,0.4955,0.4955,0,0.5306,0.5298,0.5308,0.527,0.5257,0.5259,0.5209,0.5202,0.517,0.5138,0.5133,0.5097,0.5071,0.5069,0.5038,0.5063,0.5051,0.502,0.498,0.5035,0.505,0.5056,0.4962,0.496,0.4959,0.4958,0,0,0.542,0.5354,0.5358,0.5339,0.5294,0.5286,0.5285,0.526,0.5253,0.5227,0.5224,0.5204,0.5174,0.5157,0.5122,0.5127,0.517,0.5094,0.5092,0.5108,0.5194,0.5217,0.5226,0.5146,0.5147,0.5148,0.5197,0,0.5476,0.5471,0.5426,0.5433,0.5424,0.5368,0.5366,0.5338,0.5308,0.5295,0.5261,0.5247,0.521,0.5199,0.5201,0.5165,0.5187,0.5161,0.5141,0.5141,0.5151,0.5234,0.5258,0.5306,0.5202,0.5203,0.5204,0,0.5542,0.5519,0.5526,0.5478,0.5473,0.5473,0.5445,0.5434,0.54,0.5377,0.5357,0.5318,0.5312,0.5275,0.5266,0.5249,0.5238,0.5219,0.522,0.5216,0.5175,0.523,0.532,0.5327,0.5213,0.5212,0.5211,0,0.5622,0.5593,0.5593,0.5579,0.5524,0.5525,0.5502,0.5467,0.5454,0.5429,0.542,0.5395,0.5382,0.5363,0.5317,0.5295,0.5313,0.5272,0.5293,0.5294,0.5298,0.5299,0.5387,0.5294,0.5294,0.5293,0.5293,0,0.569,0.5695,0.5628,0.5628,0.5632,0.558,0.5586,0.5557,0.5526,0.5518,0.5468,0.5462,0.5402,0.5389,0.5354,0.535,0.5345,0.5325,0.5316,0.5329,0.5332,0.5321,0.5316,0.5295,0.5295,0.5294,0.5294,0,0.578,0.5735,0.5731,0.5679,0.5667,0.5672,0.5627,0.5624,0.5591,0.5582,0.5576,0.5524,0.5505,0.5458,0.5427,0.5403,0.5409,0.5392,0.5421,0.5414,0.5437,0.5435,0.5521,0.5529,0.5432,0.5433,0.5434,0,0.5825,0.5828,0.5777,0.5768,0.5747,0.5734,0.5721,0.5669,0.5657,0.5617,0.5619,0.5597,0.5576,0.5549,0.5507,0.5483,0.5464,0.5495,0.546,0.5473,0.5463,0.5463,0.5462,0.5503,0.5505,0.5506,0.5506,0,0.591,0.5887,0.587,0.5845,0.583,0.5807,0.5782,0.5777,0.5719,0.5708,0.5688,0.5672,0.564,0.5618,0.5587,0.5562,0.5524,0.5518,0.5521,0.5535,0.5551,0.5541,0.5441,0.5516,0.5515,0.5514,0.5514,0.5514,0.5978,0.5977,0.5941,0.5922,0.5898,0.5875,0.5869,0.5835,0.5818,0.5788,0.5759,0.5742,0.5706,0.566,0.5638,0.5624,0.5604,0.5609,0.561,0.5612,0.5617,0.5554,0.5618,0.5617,0.5617,0.5617,0.5617,0,0.6058,0.6032,0.6016,0.5982,0.5967,0.5933,0.5903,0.5892,0.5879,0.5849,0.5829,0.5806,0.5784,0.574,0.5714,0.571,0.5692,0.5705,0.5704,0.5699,0.5637,0.5636,0.572,0.572,0.572,0.572,0.572,0.572,0.6099,0.6095,0.6069,0.6052,0.6025,0.6009,0.5994,0.5972,0.5948,0.5925,0.5906,0.5878,0.5842,0.5812,0.579,0.5777,0.5769,0.5788,0.577,0.5713,0.5703,0.5694,0.5693,0.5787,0.5787,0.5832,0.5833,0.5833]}]]